Wind_Speed
11 11 11 11 13 14 15 16 16 14 13 13 12 11 11 9 10 10 10 10 11 12 12 11 10 10 10 10 9 9 8 8 8 8 8 8 8 8 7 7 6 7 6 6 6 6 7 6 6
10 11 10 11 13 13 14 15 14 13 13 12 11 10 10 9 9 10 10 9 10 10 10 10 9 9 9 8 8 8 7 7 7 8 8 7 7 7 7 7 6 6 6 6 6 6 6 6 6
8 8 9 11 13 13 13 14 13 13 13 12 11 10 9 8 9 9 9 9 9 9 9 9 9 9 9 8 7 7 7 6 6 7 7 7 7 7 6 6 6 6 6 6 6 6 6 6 5
7 7 7 9 11 12 12 13 13 13 13 12 11 10 9 9 9 8 8 8 8 8 8 8 8 8 8 7 6 6 6 6 6 6 6 6 6 6 6 6 6 6 6 6 6 6 6 5 5
4 6 7 9 11 10 10 12 12 13 12 11 11 10 9 9 8 8 8 7 8 8 8 8 8 7 7 6 6 6 5 5 5 6 6 5 5 6 6 6 6 6 6 6 6 5 5 5 5
3 5 6 8 9 9 10 11 12 11 10 10 10 10 9 8 7 7 7 7 7 7 7 7 7 7 6 5 5 6 6 6 6 6 5 6 6 6 5 5 6 5 5 6 5 5 5 4 4
3 3 5 7 7 7 9 10 10 10 9 9 9 9 9 8 7 7 7 7 7 7 7 6 7 6 6 5 5 5 6 5 5 5 5 5 6 5 5 5 6 6 5 5 5 5 5 5 5
5 3 4 5 7 6 7 8 8 9 9 9 9 9 9 8 8 7 6 7 6 6 5 5 6 5 5 5 5 4 4 4 4 5 5 5 6 6 5 5 5 5 5 5 5 5 4 4 4
4 3 3 4 5 5 5 6 7 8 8 8 9 8 8 8 8 7 6 5 5 5 4 4 5 4 5 5 5 4 4 4 4 4 5 5 5 5 5 5 4 4 4 5 4 4 4 3 3
4 3 3 2 3 3 4 5 6 7 8 8 8 8 7 7 7 6 5 4 4 4 4 3 4 4 4 4 4 4 3 3 4 4 4 4 4 4 4 4 4 4 5 5 5 4 4 3 3
5 4 2 2 2 3 3 4 5 6 7 7 7 7 7 6 5 5 4 3 3 3 3 3 3 3 3 3 3 3 3 3 3 3 4 3 3 4 4 4 4 4 4 5 5 4 4 3 2
8 6 3 1 2 2 2 2 3 5 5 6 7 7 7 7 5 4 4 3 3 3 3 3 3 3 4 3 3 2 2 3 3 3 4 3 3 3 3 4 4 4 4 4 4 4 4 3 3
10 7 5 4 2 2 1 1 2 4 4 5 6 7 7 6 5 4 3 3 3 3 3 3 2 3 4 3 3 2 3 2 2 3 3 3 3 3 3 3 3 4 4 4 4 4 4 4 3
11 9 7 5 3 2 0 1 1 2 4 5 5 6 6 6 5 5 4 4 3 3 3 3 4 4 4 4 3 3 3 3 3 2 3 3 3 3 3 3 4 4 4 4 4 4 4 4 4
11 9 8 5 4 3 1 1 2 3 4 5 5 5 5 5 5 5 4 4 4 4 3 3 4 4 4 4 3 3 3 3 3 3 3 3 3 3 4 4 4 4 4 4 4 4 4 4 3
12 10 8 6 5 5 4 2 2 3 4 4 5 5 5 5 5 5 4 4 4 4 4 3 2 3 4 4 3 3 3 3 4 4 4 4 4 4 5 5 5 4 4 4 4 4 5 5 4
13 10 9 8 6 6 5 3 2 3 3 4 4 4 4 4 4 4 3 4 4 4 4 3 3 3 3 4 4 4 4 4 5 5 5 5 5 5 5 5 5 5 5 4 5 5 5 4 4
14 13 11 9 8 7 6 4 4 3 3 3 3 3 4 4 4 3 3 2 3 3 4 3 3 3 3 4 4 4 5 5 5 6 6 6 5 6 5 5 5 5 5 5 5 5 5 4 5
17 15 13 11 10 9 8 6 6 5 4 3 4 3 3 4 4 5 4 3 2 2 3 4 4 4 4 5 5 5 5 5 5 6 5 5 5 5 4 5 5 5 5 5 6 6 5 5 5
18 16 14 12 11 10 10 9 8 7 6 5 5 4 4 4 4 5 5 4 3 3 4 4 5 5 5 5 6 5 5 5 6 6 6 5 5 5 5 5 6 6 6 6 6 6 5 5 5
19 16 15 14 13 12 11 11 9 9 8 7 7 7 6 5 4 5 5 5 5 4 5 5 6 6 6 7 7 6 7 7 7 7 6 6 6 6 6 6 6 7 7 6 5 5 5 5 5
19 18 18 16 15 14 13 12 11 10 10 9 9 10 9 7 6 6 6 5 5 5 6 6 6 6 7 7 7 7 7 7 8 8 8 7 7 7 8 8 7 8 8 6 6 5 5 5 5
20 18 18 17 17 17 16 15 12 12 12 11 10 10 9 7 7 7 7 6 6 5 6 6 6 6 7 7 7 7 8 9 8 9 9 8 8 8 8 8 8 8 7 6 6 5 6 6 6
22 21 20 20 19 19 17 17 15 14 13 12 11 10 8 7 8 8 8 7 7 7 7 6 6 6 7 8 8 8 9 9 9 9 10 9 8 8 8 9 8 8 7 7 7 7 7 7 7
24 24 23 23 22 18 17 19 17 15 14 13 13 12 10 9 9 9 8 8 8 7 7 8 8 8 8 9 8 8 9 9 9 9 10 9 9 9 9 9 9 9 8 8 7 7 8 8 8
25 25 24 24 22 19 19 20 17 15 14 14 13 12 11 10 9 9 9 8 8 8 8 9 9 9 9 9 9 9 9 9 9 8 8 9 9 9 10 9 9 9 9 9 8 8 9 8 8
26 27 25 24 22 20 19 18 17 16 16 16 16 14 12 11 10 10 9 9 9 10 10 10 10 10 10 10 9 9 9 9 9 9 9 9 9 9 9 9 10 10 9 9 9 9 9 9 9
26 26 26 26 24 22 20 18 14 14 16 16 16 14 13 13 11 12 10 10 10 10 10 11 10 10 10 10 10 10 9 9 9 9 9 10 10 10 10 9 9 8 8 9 9 9 9 10 10
26 27 27 27 26 24 21 18 15 14 15 15 16 16 14 14 13 11 11 10 11 10 11 11 11 11 9 9 10 11 10 10 9 9 9 10 11 11 10 9 8 8 8 9 9 9 10 10 10
26 27 27 27 27 26 24 20 17 16 16 16 17 16 15 14 13 13 12 11 12 11 11 11 11 10 9 9 10 10 10 9 9 10 10 11 11 11 10 9 8 9 9 10 10 10 10 11 11
Wind_Direction
90 87 78 71 68 61 57 59 58 59 59 60 58 59 63 77 85 91 97 98 100 100 98 98 97 96 96 93 90 87 84 81 81 79 73 71 69 67 67 72 77 78 80 78 77 76 79 78 75
94 86 83 75 65 55 53 55 57 58 58 59 58 61 66 80 86 92 96 97 97 99 99 97 95 96 96 93 89 83 76 72 76 75 70 66 66 65 63 65 70 75 76 72 75 75 78 74 69
103 93 89 73 63 54 48 48 51 53 52 55 59 62 69 79 87 92 94 93 95 98 100 99 98 98 96 91 86 79 72 70 70 68 65 65 68 69 62 57 60 64 65 66 69 70 66 63 66
104 100 91 75 63 54 45 42 44 50 49 54 59 62 76 81 87 93 95 93 95 97 97 96 96 95 93 88 82 74 71 70 66 63 59 60 64 62 63 64 64 61 60 57 54 55 55 58 61
100 101 87 70 60 52 45 39 38 39 42 47 52 60 75 81 85 93 97 96 95 95 96 94 91 89 88 85 78 73 76 74 68 61 57 55 55 53 54 59 64 63 58 50 51 52 58 62 63
114 107 82 68 67 51 40 33 34 32 35 42 49 58 70 79 82 85 95 93 96 97 95 91 89 87 85 79 73 73 78 76 70 62 57 55 55 50 50 51 51 55 52 51 47 47 49 55 58
141 121 82 71 72 65 39 30 28 29 33 40 49 54 59 69 81 83 87 90 92 93 94 89 88 85 82 78 76 77 74 74 70 65 57 54 54 48 45 46 46 46 49 45 42 42 44 47 48
149 141 95 77 73 69 46 30 25 31 33 35 43 50 56 64 73 77 80 85 89 88 91 89 86 81 74 74 76 75 74 72 70 64 52 48 47 43 41 45 42 42 42 39 36 34 36 35 37
166 151 97 90 82 70 57 32 20 27 26 30 40 45 53 60 67 68 67 73 81 85 82 86 80 76 69 68 67 67 68 66 64 58 49 43 38 38 36 33 31 41 39 32 30 29 28 28 30
182 143 92 103 87 79 62 42 19 19 21 25 33 37 41 55 66 72 66 57 64 76 78 84 82 72 64 65 61 55 52 51 48 52 43 33 36 34 29 26 29 32 29 24 24 23 15 15 14
191 182 119 98 93 85 62 29 15 12 15 23 31 33 33 40 55 72 72 62 53 59 68 67 65 58 58 59 53 49 41 41 38 34 24 23 29 27 18 16 17 19 17 15 18 14 9 8 1
201 199 198 212 130 100 80 33 18 17 12 21 32 34 33 34 48 59 63 68 61 56 66 72 50 46 51 46 39 30 21 30 24 15 17 13 18 13 5 357 357 359 359 360 1 1 2 2 353
204 205 220 221 199 152 66 12 13 9 11 20 32 35 33 36 43 49 53 67 67 74 76 83 70 50 46 36 29 19 7 359 355 358 6 4 4 356 350 353 350 343 346 345 342 340 340 335 327
211 202 213 212 228 229 249 302 340 351 357 14 26 30 31 28 32 33 36 43 56 58 61 67 63 52 47 35 26 8 2 354 340 330 339 348 349 347 339 337 334 329 330 328 327 325 325 322 313
217 206 212 218 230 250 270 320 354 350 359 8 17 26 31 27 26 26 26 34 47 48 41 56 52 44 41 31 17 5 348 341 327 328 333 338 340 335 333 329 321 313 313 315 322 318 318 313 303
216 207 203 213 227 254 264 286 316 334 347 0 10 19 35 36 24 21 25 36 41 42 31 25 27 19 17 9 357 351 348 342 333 325 320 314 314 321 324 327 319 307 308 306 308 307 308 305 295
213 207 200 205 222 247 262 283 296 300 319 345 357 10 28 29 27 17 17 23 31 34 26 8 357 357 0 358 350 342 333 330 328 323 315 308 309 320 323 322 324 316 305 296 297 296 300 303 296
207 207 203 207 223 236 246 265 267 279 288 324 340 352 2 360 356 352 347 1 16 23 15 359 338 334 337 342 342 335 327 317 321 324 323 316 315 320 322 325 326 320 309 300 298 292 287 292 293
210 210 207 211 217 228 240 254 259 261 268 289 303 313 333 343 341 336 323 312 330 347 345 336 326 324 323 326 329 321 318 315 315 321 328 326 320 321 320 322 322 317 311 302 300 291 289 289 285
214 216 212 211 216 227 236 253 263 271 271 288 288 282 311 319 306 318 322 310 314 318 325 325 317 313 312 317 320 312 308 312 317 320 320 315 315 314 309 315 316 315 313 305 297 293 292 292 289
216 215 211 210 211 222 235 248 263 277 281 284 279 274 293 303 302 301 306 319 321 318 316 316 313 310 309 311 312 304 302 304 305 305 309 308 306 298 300 303 311 314 309 304 298 287 280 279 283
215 215 211 210 215 223 238 254 263 274 279 284 275 272 283 287 284 290 289 297 303 309 308 312 310 308 309 315 321 314 309 307 305 297 295 297 294 294 294 300 306 312 308 299 291 285 273 278 276
213 214 214 213 221 228 234 248 260 265 272 280 274 272 279 289 289 290 298 295 299 308 312 311 316 313 317 319 322 322 312 308 304 298 290 288 289 289 292 296 299 301 305 298 286 284 272 273 273
212 214 214 215 222 228 234 245 252 256 268 275 273 271 278 281 283 290 294 298 305 304 305 308 312 307 309 310 313 319 318 311 302 295 294 288 287 289 289 294 296 298 300 296 287 279 277 277 274
213 215 216 219 226 231 236 246 256 259 266 271 271 270 271 274 276 274 279 290 298 301 299 301 301 301 299 301 308 312 314 313 307 298 294 289 289 286 287 289 291 295 292 289 286 282 282 283 277
215 218 221 224 228 233 238 245 253 257 260 262 264 268 270 273 274 277 277 279 287 294 296 296 295 296 297 300 305 305 306 309 308 302 298 293 292 292 291 287 288 292 289 286 281 279 280 281 280
217 220 223 226 230 232 237 245 248 251 253 256 260 263 268 276 274 275 275 270 276 281 285 288 289 292 294 295 297 295 296 300 303 301 300 301 294 291 294 290 285 286 289 286 282 282 282 282 287
221 222 223 226 229 234 239 242 248 243 254 257 259 267 269 273 265 265 267 268 269 273 281 291 293 294 292 289 289 291 289 288 291 296 296 298 296 292 292 291 288 286 289 287 281 281 283 284 287
221 222 224 227 230 233 238 240 244 252 259 262 267 268 269 273 267 256 262 268 271 272 277 285 290 287 286 287 290 289 285 283 287 293 295 296 296 291 286 286 284 288 290 290 288 283 283 285 287
221 223 224 226 228 232 238 244 250 254 254 259 260 263 268 268 266 264 266 267 271 272 275 281 284 280 279 283 290 294 289 281 283 288 292 297 296 290 284 281 281 285 285 286 288 289 285 284 284
Height
5908 5907 5908 5908 5908 5906 5905 5905 5905 5904 5904 5903 5903 5902 5902 5902 5902 5904 5902 5900 5901 5901 5901 5901 5901 5902 5902 5903 5903 5903 5903 5903 5902 5902 5902 5901 5901 5900 5900 5899 5899 5898 5898 5897 5897 5896 5896 5895 5895
5909 5909 5910 5910 5908 5907 5907 5907 5907 5907 5906 5905 5905 5904 5904 5903 5903 5903 5902 5902 5902 5902 5903 5903 5903 5903 5904 5904 5904 5905 5904 5904 5904 5903 5903 5903 5902 5901 5901 5900 5900 5899 5899 5898 5898 5897 5897 5896 5896
5911 5911 5912 5910 5909 5909 5908 5908 5908 5908 5907 5907 5907 5906 5905 5904 5904 5904 5904 5903 5904 5904 5904 5905 5905 5905 5905 5906 5906 5906 5906 5906 5905 5905 5905 5904 5904 5903 5902 5901 5901 5900 5900 5899 5899 5898 5898 5897 5897
5912 5913 5912 5911 5910 5910 5910 5910 5910 5909 5909 5908 5908 5908 5906 5906 5905 5905 5905 5905 5905 5905 5906 5906 5906 5906 5907 5907 5907 5907 5907 5907 5906 5906 5906 5905 5905 5904 5903 5902 5902 5901 5901 5900 5900 5899 5899 5898 5898
5913 5913 5912 5911 5911 5910 5910 5910 5911 5911 5910 5909 5909 5909 5909 5908 5907 5906 5906 5906 5906 5907 5907 5907 5908 5908 5908 5908 5908 5908 5908 5908 5908 5907 5907 5907 5906 5905 5904 5903 5903 5902 5902 5901 5901 5900 5900 5899 5899
5915 5914 5913 5912 5912 5912 5912 5912 5912 5912 5911 5910 5910 5910 5910 5909 5908 5907 5908 5908 5908 5908 5909 5909 5909 5909 5909 5909 5910 5909 5909 5909 5909 5909 5908 5908 5907 5906 5906 5905 5904 5904 5903 5902 5902 5901 5901 5900 5900
5916 5915 5914 5913 5913 5913 5913 5913 5914 5913 5913 5912 5911 5911 5911 5911 5910 5909 5909 5909 5909 5909 5910 5910 5910 5910 5910 5910 5910 5910 5910 5910 5909 5909 5909 5909 5908 5908 5907 5906 5905 5905 5904 5903 5903 5902 5902 5901 5901
5915 5916 5914 5914 5914 5914 5915 5915 5915 5915 5914 5913 5912 5912 5912 5912 5911 5910 5910 5910 5910 5910 5911 5911 5912 5911 5911 5911 5911 5910 5910 5910 5910 5910 5910 5910 5909 5908 5908 5907 5906 5905 5905 5904 5903 5903 5902 5902 5901
5915 5916 5915 5915 5915 5916 5915 5916 5916 5915 5915 5915 5914 5913 5913 5913 5912 5911 5911 5912 5912 5912 5912 5912 5912 5912 5912 5912 5912 5911 5911 5911 5911 5911 5911 5910 5910 5909 5908 5907 5907 5906 5905 5904 5904 5903 5903 5902 5901
5915 5915 5915 5915 5916 5916 5916 5917 5917 5916 5916 5916 5915 5914 5914 5914 5913 5913 5913 5913 5913 5913 5913 5913 5913 5913 5913 5913 5912 5912 5912 5912 5912 5912 5911 5911 5910 5909 5908 5908 5907 5906 5906 5905 5904 5904 5903 5902 5901
5915 5915 5915 5916 5916 5917 5917 5917 5917 5917 5916 5916 5916 5915 5914 5914 5914 5914 5914 5913 5913 5913 5913 5913 5913 5913 5913 5913 5913 5913 5913 5912 5912 5912 5912 5911 5910 5909 5909 5908 5907 5907 5906 5905 5905 5904 5903 5902 5901
5915 5915 5916 5917 5917 5918 5918 5918 5918 5917 5917 5917 5917 5916 5915 5915 5914 5914 5914 5914 5914 5914 5914 5914 5914 5913 5913 5913 5913 5913 5913 5913 5913 5912 5912 5911 5910 5910 5909 5908 5908 5907 5906 5905 5905 5904 5903 5902 5902
5914 5915 5915 5916 5917 5918 5919 5919 5919 5918 5918 5917 5917 5917 5916 5916 5915 5915 5915 5915 5914 5914 5914 5915 5914 5914 5914 5914 5913 5913 5913 5913 5913 5912 5912 5911 5911 5910 5909 5909 5908 5907 5906 5905 5904 5904 5903 5902 5902
5913 5914 5915 5916 5916 5917 5918 5919 5920 5919 5919 5918 5917 5917 5917 5916 5915 5915 5915 5915 5915 5914 5914 5915 5915 5915 5914 5914 5913 5913 5913 5913 5912 5912 5912 5911 5910 5910 5909 5908 5907 5906 5906 5905 5904 5903 5903 5902 5901
5912 5913 5914 5915 5916 5917 5918 5919 5920 5919 5919 5919 5918 5918 5918 5917 5916 5916 5916 5915 5915 5915 5914 5914 5914 5914 5914 5914 5914 5913 5913 5913 5912 5911 5911 5910 5910 5909 5909 5908 5907 5906 5905 5904 5903 5903 5902 5901 5900
5911 5912 5914 5915 5915 5916 5919 5919 5920 5920 5919 5919 5918 5918 5918 5917 5917 5916 5916 5916 5915 5915 5915 5914 5914 5914 5914 5914 5913 5913 5912 5912 5911 5910 5910 5909 5909 5908 5908 5907 5906 5905 5904 5903 5902 5901 5901 5900 5899
5909 5911 5913 5914 5915 5916 5918 5918 5919 5919 5919 5919 5919 5918 5918 5918 5917 5917 5916 5916 5915 5915 5915 5914 5914 5914 5914 5913 5913 5912 5912 5911 5910 5909 5909 5908 5907 5907 5906 5905 5904 5903 5903 5902 5901 5900 5899 5899 5899
5908 5909 5911 5913 5914 5915 5916 5917 5918 5918 5918 5919 5918 5918 5918 5918 5917 5917 5916 5915 5915 5915 5914 5914 5914 5913 5913 5912 5912 5911 5911 5910 5909 5909 5908 5907 5906 5905 5905 5904 5903 5902 5902 5901 5900 5899 5898 5898 5898
5905 5907 5909 5911 5912 5913 5914 5915 5917 5917 5918 5918 5918 5918 5917 5917 5917 5916 5916 5915 5915 5914 5914 5913 5913 5912 5912 5911 5911 5910 5909 5909 5908 5907 5906 5906 5905 5904 5904 5903 5902 5901 5900 5900 5899 5898 5898 5897 5897
5902 5905 5907 5908 5909 5911 5912 5913 5914 5915 5916 5917 5916 5916 5916 5916 5916 5916 5915 5915 5914 5914 5913 5912 5912 5911 5911 5910 5910 5909 5908 5907 5907 5906 5905 5904 5904 5903 5902 5902 5901 5900 5899 5898 5898 5897 5896 5896 5896
5900 5903 5904 5906 5907 5908 5910 5912 5913 5914 5915 5915 5916 5915 5915 5915 5915 5915 5914 5914 5913 5912 5912 5911 5911 5910 5910 5909 5908 5907 5906 5906 5906 5905 5904 5903 5902 5902 5901 5900 5899 5898 5897 5897 5896 5896 5895 5895 5894
5897 5900 5902 5903 5905 5906 5908 5909 5911 5912 5912 5913 5914 5914 5913 5913 5913 5913 5913 5913 5912 5911 5910 5910 5909 5909 5908 5907 5906 5906 5905 5904 5904 5903 5902 5901 5901 5900 5899 5898 5897 5897 5895 5895 5894 5894 5894 5893 5893
5895 5897 5899 5900 5902 5903 5905 5906 5909 5909 5910 5911 5911 5911 5911 5912 5911 5911 5912 5911 5910 5909 5908 5907 5907 5907 5906 5906 5905 5904 5903 5902 5902 5901 5900 5899 5899 5898 5897 5896 5896 5895 5894 5893 5892 5892 5892 5891 5891
5891 5894 5895 5897 5899 5901 5903 5904 5905 5906 5907 5908 5909 5909 5909 5909 5909 5910 5910 5909 5908 5908 5907 5906 5905 5906 5905 5904 5903 5902 5902 5900 5899 5898 5897 5896 5896 5896 5895 5894 5894 5893 5892 5891 5890 5890 5890 5889 5889
5887 5890 5892 5894 5895 5898 5900 5900 5903 5904 5905 5905 5905 5906 5906 5907 5908 5908 5908 5907 5907 5906 5905 5905 5904 5904 5903 5902 5901 5901 5900 5898 5897 5896 5895 5894 5894 5893 5892 5892 5892 5891 5890 5889 5889 5888 5888 5887 5886
5883 5886 5889 5892 5893 5896 5897 5897 5900 5901 5902 5902 5902 5903 5904 5905 5905 5905 5905 5905 5904 5904 5904 5903 5902 5902 5901 5900 5899 5898 5897 5896 5895 5894 5893 5892 5891 5891 5890 5890 5889 5888 5888 5887 5886 5886 5885 5884 5883
5879 5882 5885 5888 5890 5892 5893 5894 5896 5897 5898 5898 5899 5900 5901 5901 5902 5903 5902 5902 5902 5902 5901 5900 5900 5900 5899 5898 5897 5896 5895 5894 5893 5892 5891 5890 5889 5888 5888 5887 5887 5886 5885 5885 5884 5883 5882 5882 5881
5875 5878 5881 5883 5885 5887 5889 5891 5893 5893 5893 5894 5895 5897 5897 5897 5897 5898 5899 5898 5898 5899 5898 5898 5898 5897 5896 5895 5895 5894 5893 5892 5891 5890 5889 5888 5887 5886 5886 5885 5884 5883 5883 5882 5881 5880 5879 5878 5878
5870 5873 5876 5879 5881 5883 5885 5889 5889 5890 5891 5891 5892 5893 5894 5894 5894 5894 5894 5894 5895 5895 5896 5896 5894 5894 5893 5893 5892 5890 5889 5889 5888 5888 5887 5886 5885 5884 5884 5883 5882 5881 5880 5879 5878 5877 5876 5875 5875
5865 5868 5871 5874 5877 5879 5881 5886 5885 5886 5887 5888 5888 5889 5889 5890 5890 5890 5890 5891 5891 5891 5892 5892 5891 5891 5890 5889 5889 5888 5886 5886 5885 5885 5884 5883 5882 5881 5881 5880 5879 5878 5878 5877 5876 5875 5874 5873 5872